FW4584 Weather Reports


time (UTC)temp
C
wind
direction
speed
KPH
gust
KPH
rain 1hr
cm
rain 24hr
cm
rain mn
cm
humidity
%
barometer
mb
20260504080412 13 218 9.7 25.7 0.00 0.00 0.00 47 996.2
20260504070112 13 223 8.0 17.7 0.00 0.00 0.00 44 997.5
20260504050412 13 204 1.6 11.3 0.00 0.00 0.00 48 1000.2
20260504045512 13 215 1.6 11.3 0.00 0.00 0.00 49 1000.3
20260504044612 12 222 1.6 6.4 0.00 0.00 0.00 51 1000.4
20260504043712 12 215 0.0 4.8 0.00 0.00 0.00 53 1000.5
20260504042812 12 215 0.0 1.6 0.00 0.00 0.00 52 1000.8
20260504041011 13 214 0.0 4.8 0.00 0.00 0.00 51 1001.1
20260504040112 13 0 0.0 0.0 0.00 0.00 0.00 51 1001.3
20260504035212 13 0 0.0 0.0 0.00 0.00 0.00 48 1001.5
20260504034311 13 0 0.0 0.0 0.00 0.00 0.00 46 1001.6
20260504032511 13 358 0.0 1.6 0.00 0.00 0.00 45 1001.9
20260504031611 13 0 0.0 0.0 0.00 0.00 0.00 46 1002.0
20260504030711 13 0 0.0 0.0 0.00 0.00 0.00 47 1002.1
20260504025811 13 0 0.0 0.0 0.00 0.00 0.00 47 1002.3
20260504024911 14 0 0.0 0.0 0.00 0.00 0.00 47 1002.2
20260504024011 15 0 0.0 0.0 0.00 0.00 0.00 48 1002.3
20260504023111 15 0 0.0 0.0 0.00 0.00 0.00 40 1002.3
20260504015511 16 0 0.0 0.0 0.00 0.00 0.00 36 1002.6
20260504014611 17 0 0.0 0.0 0.00 0.00 0.00 36 1002.6
20260504013711 17 0 0.0 0.0 0.00 0.00 0.00 36 1002.7
20260504012811 18 0 0.0 0.0 0.00 0.00 0.00 37 1002.8
20260504011911 18 0 0.0 0.0 0.00 0.00 0.00 32 1002.8
20260504011011 19 261 1.6 6.4 0.00 0.00 0.00 32 1002.8
20260504010111 19 268 3.2 12.9 0.00 0.00 0.00 30 1002.9
20260504005211 20 269 4.8 9.7 0.00 0.00 0.00 29 1003.0
20260504004311 20 279 4.8 14.5 0.00 0.00 0.00 28 1003.1
20260504003411 20 282 4.8 16.1 0.00 0.00 0.00 28 1003.1
20260504002511 20 283 8.0 20.9 0.00 0.00 0.00 28 1003.2
20260504001611 20 286 11.3 19.3 0.00 0.00 0.00 28 1003.3
20260503235811 20 289 12.9 22.5 0.00 0.00 0.00 27 1003.3
20260503234011 20 285 11.3 22.5 0.00 0.00 0.00 28 1003.4
20260503232211 21 281 11.3 24.1 0.00 0.00 0.00 26 1003.4
20260503231311 21 291 14.5 29.0 0.00 0.00 0.00 26 1003.5
20260503230411 21 295 9.7 29.0 0.00 0.00 0.00 26 1003.6
20260503225511 21 285 9.7 20.9 0.00 0.00 0.00 27 1003.8
20260503223711 21 289 11.3 25.7 0.00 0.00 0.00 25 1003.8
20260503222811 21 310 16.1 29.0 0.00 0.00 0.00 26 1003.8
20260503221910 21 290 11.3 20.9 0.00 0.00 0.00 26 1003.9
20260503221010 21 288 16.1 30.6 0.00 0.00 0.00 26 1004.0
20260503220110 21 297 12.9 25.7 0.00 0.00 0.00 26 1004.0
20260503215211 21 307 14.5 27.4 0.00 0.00 0.00 26 1004.1
20260503214310 21 298 17.7 38.6 0.00 0.00 0.00 25 1004.2
20260503212510 21 296 12.9 24.1 0.00 0.00 0.00 27 1004.3
20260503211610 21 299 12.9 25.7 0.00 0.00 0.00 28 1004.4
20260503210710 20 287 14.5 27.4 0.00 0.00 0.00 27 1004.5
20260503205810 20 307 17.7 29.0 0.00 0.00 0.00 26 1004.7
20260503204910 20 303 16.1 27.4 0.00 0.00 0.00 26 1004.8
20260503204010 20 330 20.9 35.4 0.00 0.00 0.00 26 1004.8
20260503203110 20 326 20.9 35.4 0.00 0.00 0.00 26 1004.9
20260503202210 20 311 20.9 32.2 0.00 0.00 0.00 26 1005.1
20260503201310 20 315 16.1 30.6 0.00 0.00 0.00 25 1005.2
20260503200410 20 333 17.7 29.0 0.00 0.00 0.00 27 1005.1
20260503195510 20 302 14.5 25.7 0.00 0.00 0.00 26 1005.3
20260503193710 19 326 17.7 33.8 0.00 0.00 0.00 28 1005.4
20260503191910 20 310 19.3 30.6 0.00 0.00 0.00 29 1005.7
20260503191010 19 328 19.3 32.2 0.00 0.00 0.00 31 1005.8
20260503190110 19 326 20.9 37.0 0.00 0.00 0.00 31 1005.9
20260503185210 19 314 20.9 32.2 0.00 0.00 0.00 32 1006.0
20260503184310 19 330 22.5 41.8 0.00 0.00 0.00 34 1006.0
20260503182510 18 339 24.1 33.8 0.00 0.00 0.00 31 1006.1
20260503181610 19 345 24.1 38.6 0.00 0.00 0.00 32 1006.2
20260503180710 19 343 24.1 37.0 0.00 0.00 0.00 31 1006.2
20260503175810 18 341 27.4 37.0 0.00 0.00 0.00 33 1006.2
20260503174910 18 341 25.7 35.4 0.00 0.00 0.00 31 1006.4
20260503174010 18 342 24.1 37.0 0.00 0.00 0.00 34 1006.3
20260503173109 18 340 20.9 32.2 0.00 0.00 0.00 33 1006.4
20260503172209 18 343 24.1 35.4 0.00 0.00 0.00 32 1006.4
20260503171310 18 332 25.7 41.8 0.00 0.00 0.00 34 1006.6
20260503170410 18 334 25.7 38.6 0.00 0.00 0.00 35 1006.5
20260503160109 17 330 27.4 38.6 0.00 0.00 0.00 42 1006.4
20260503150709 16 331 20.9 33.8 0.00 0.00 0.00 49 1006.2
20260503131009 13 338 22.5 35.4 0.00 0.00 0.00 57 1005.5
20260503130109 12 336 22.5 32.2 0.00 0.00 0.00 58 1005.3
20260503110408 10 271 3.2 11.3 0.00 0.00 0.00 61 1003.3
20260503100108 11 252 3.2 9.7 0.00 0.00 0.00 61 1003.2